Погода в Берлине

США     41°37′16″N   72°44′45″W
темп.,
°C
ветер,
м/с
пор.,
м/с
влажн.,
%
обл.,
%
осадки,
мм/ч
давл.,
гПа
погр.,
м
31 июля, сб
сб3123:00+17сз411550 0.0 1014608
02:00+13сз28660 0.0 1014202
05:00+11сз26690 0.0 1015134
08:00+15сз38555 0.0 1016438
11:00+20сз35385 0.0 10161433
14:00+23зсз35310 0.0 10141946
17:00+24зсз34353 0.0 10142080
20:00+17ю11660 0.0 101411
1 августа, вс
вс123:00+15св11710 0.0 101611
02:00+14ссв11733 0.0 101511
05:00+13ссв11764 0.0 101511
08:00+18ююв01680 0.0 1016156
11:00+25ююз35505 0.0 10151301
14:00+27ю564415 0.0 10131958
17:00+24ю5753100 0.0 10131298
20:00+19ю3979100 0.0 1012533
2 августа, пн
пн223:00+17юв279182 0.0 1011263
02:00+18ююв139945 0.6 1009105
05:00+18зюз1499100 1.3 1008226
08:00+18з3689100 1.3 1009370
11:00+22сз346093 0.1 10101446
14:00+23сз365683 0.1 10101357
17:00+24сз565223 0.0 10121577
20:00+19зсз26730 0.0 1015138
3 августа, вт
вт323:00+16ссз22735 0.0 101716
02:00+14с2277100 0.0 101717
05:00+13ссв2383100 0.0 101849
08:00+17ссв1274100 0.0 1019159
11:00+21ю1259100 0.0 1020677
14:00+23ююз225397 0.0 10191210
17:00+22ююз1265100 0.0 101868
20:00+18ю238275 0.0 101857
4 августа, ср
ср423:00+16ю1186100 0.0 102026
02:00+15юз0191100 0.0 102011
05:00+15сз0094100 0.0 102011
08:00+19ссз0177100 0.0 1021161
11:00+23юв1161100 0.0 1022807
14:00+26юв2244100 0.0 10211900
17:00+24ююв4462100 0.0 1021579
20:00+18ююв2688100 0.0 1022207